Jackson, WY

9:47 PM MDT on July 23, 2017 (GMT -0600)
Jackson Hole

Weather History for KJAC - October, 2011

Change the Weather History Date:

Sunday, October 16, 2011

  Actual Average Record
Temperature  
Mean Temperature 52 °F -  
Max Temperature 62 °F 53 °F 71 °F (1991)
Min Temperature 42 °F 22 °F 9 °F (1984)
Degree Days  
Heating Degree Days 13    
Growing Degree Days 2 (Base 50)    
Moisture  
Dew Point 35 °F    
Average Humidity 59    
Maximum Humidity 87    
Minimum Humidity 34    
Precipitation  
Precipitation 0.00 in - - ()
Sea Level Pressure  
Sea Level Pressure 30.07 in    
Wind  
Wind Speed 9 mph (SSW)    
Max Wind Speed 21 mph    
Max Gust Speed 30 mph    
Visibility 10 miles    
Events Rain , Thunderstorm    
Averages and records for this station are not official NWS values.
T = Trace of Precipitation, MM = Missing Value Source: NWS Daily Summary

Daily Weather History Graph

Daily Weather History Graph

Search for Another Location

Airport or City:

Trip Planner

Search our weather history database for the weather conditions in past years. The results will help you decide how hot, cold, wet, or windy it might be!

Date:

Astronomy

Oct. 16, 2011 Rise Set
Actual Time 7:38 AM MDT 6:38 PM MDT
Civil Twilight 7:09 AM MDT 7:07 PM MDT
Nautical Twilight 6:35 AM MDT 7:40 PM MDT
Astronomical Twilight 6:02 AM MDT 8:13 PM MDT
Moon 9:19 PM MDT (10/16) 12:06 PM MDT (10/16)
Length of Visible Light 11h 57m
Length of Day
11h 00m
Waning Gibbous, 82% of the Moon is Illuminated
Oct 16
Waning Gibbous
Oct 19
Last Quarter
Oct 26
New
Nov 2
First Quarter
Nov 10
Full

Hourly Weather History & Observations

Time (MDT) Temp. Windchill Dew Point Humidity Pressure Visibility Wind Dir Wind Speed Gust Speed Precip Events Conditions
12:15 AM 53.6 °F - 32.0 °F 44% 30.09 in 10.0 mi South 15.0 mph 20.7 mph N/A   Mostly Cloudy
12:35 AM 53.6 °F - 32.0 °F 44% 30.10 in 10.0 mi South 11.5 mph - N/A   Mostly Cloudy
12:55 AM 53.6 °F - 32.0 °F 44% 30.10 in 10.0 mi SSW 8.1 mph - N/A   Overcast
1:15 AM 53.6 °F - 32.0 °F 44% 30.08 in 10.0 mi South 12.7 mph - N/A   Mostly Cloudy
1:35 AM 53.6 °F - 32.0 °F 44% 30.08 in 10.0 mi South 8.1 mph - N/A   Mostly Cloudy
1:55 AM 51.8 °F - 30.2 °F 44% 30.09 in 10.0 mi WSW 6.9 mph - N/A   Partly Cloudy
2:15 AM 51.8 °F - 32.0 °F 47% 30.09 in 10.0 mi SSW 6.9 mph - N/A   Mostly Cloudy
2:35 AM 53.6 °F - 32.0 °F 44% 30.09 in 10.0 mi South 15.0 mph 19.6 mph N/A   Overcast
2:55 AM 51.8 °F - 32.0 °F 47% 30.09 in 10.0 mi SSW 11.5 mph - N/A   Overcast
3:15 AM 51.8 °F - 32.0 °F 47% 30.08 in 10.0 mi Calm Calm - N/A   Overcast
3:35 AM 51.8 °F - 32.0 °F 47% 30.08 in 10.0 mi WSW 5.8 mph - N/A   Overcast
3:55 AM 51.8 °F - 32.0 °F 47% 30.08 in 10.0 mi WSW 4.6 mph - N/A   Mostly Cloudy
4:15 AM 50.0 °F - 33.8 °F 54% 30.08 in 10.0 mi Calm Calm - N/A   Scattered Clouds
4:35 AM 50.0 °F - 32.0 °F 50% 30.08 in 10.0 mi Calm Calm - N/A   Clear
4:55 AM 48.2 °F - 32.0 °F 54% 30.08 in 10.0 mi Calm Calm - N/A   Clear
5:35 AM 48.2 °F - 32.0 °F 54% 30.08 in 10.0 mi SSW 3.5 mph - N/A   Clear
5:55 AM 46.4 °F - 32.0 °F 57% 30.09 in 10.0 mi Calm Calm - N/A   Clear
6:15 AM 48.2 °F - 32.0 °F 54% 30.09 in 10.0 mi NNW 3.5 mph - N/A   Clear
6:35 AM 48.2 °F - 32.0 °F 54% 30.09 in 10.0 mi Calm Calm - N/A   Clear
7:51 AM 44.6 °F - 32.0 °F 61% 30.09 in 10.0 mi Calm Calm - N/A   Clear
8:54 AM 46.4 °F - 33.8 °F 62% 30.09 in 10.0 mi North - - N/A   Mostly Cloudy
9:51 AM 51.8 °F - 33.8 °F 50% 30.09 in 10.0 mi SW 5.8 mph - N/A   Mostly Cloudy
10:51 AM 60.8 °F - 33.8 °F 36% 30.08 in 10.0 mi South 11.5 mph - N/A   Partly Cloudy
11:51 AM 62.6 °F - 33.8 °F 34% 30.05 in 10.0 mi South 11.5 mph 19.6 mph N/A   Mostly Cloudy
12:57 PM 57.2 °F - 35.6 °F 44% 30.07 in 10.0 mi South 20.7 mph 29.9 mph N/A   Mostly Cloudy
1:51 PM 55.4 °F - 37.4 °F 51% 30.06 in 10.0 mi South 8.1 mph - N/A   Overcast
2:51 PM 53.6 °F - 39.2 °F 58% 30.04 in 8.0 mi South 17.3 mph - N/A   Overcast
3:51 PM 50.0 °F - 41.0 °F 71% 30.05 in 8.0 mi South 11.5 mph 18.4 mph N/A   Overcast
4:57 PM 50.0 °F - 39.2 °F 66% 30.06 in 8.0 mi WSW 9.2 mph 16.1 mph N/A   Mostly Cloudy
6:05 PM 44.6 °F - 37.4 °F 76% 30.06 in 6.0 mi Calm Calm - N/A Rain , Thunderstorm Light Thunderstorms and Rain
6:20 PM 44.6 °F 40.7 °F 37.4 °F 76% 30.06 in 8.0 mi NNW 6.9 mph - N/A   Overcast
6:51 PM 44.6 °F 37.2 °F 39.2 °F 81% 30.07 in 6.0 mi North 17.3 mph - N/A Rain Light Rain
7:53 PM 42.8 °F 39.3 °F 39.2 °F 87% 30.05 in 10.0 mi North 5.8 mph - N/A Rain Light Rain Showers
8:56 PM 42.8 °F 38.0 °F 37.4 °F 81% 30.04 in 10.0 mi North 8.1 mph - N/A   Overcast
9:55 PM 42.8 °F 40.1 °F 37.4 °F 81% 30.05 in 10.0 mi SSE 4.6 mph - N/A   Overcast
10:15 PM 42.8 °F 40.1 °F 39.2 °F 87% 30.05 in 10.0 mi South 4.6 mph - N/A   Overcast
10:35 PM 42.8 °F 39.3 °F 39.2 °F 87% 30.05 in 10.0 mi West 5.8 mph - N/A   Overcast
11:15 PM 42.8 °F 38.6 °F 39.2 °F 87% 30.05 in 10.0 mi SW 6.9 mph - N/A   Overcast
11:35 PM 42.8 °F 39.3 °F 39.2 °F 87% 30.05 in 10.0 mi SSW 5.8 mph - N/A   Overcast
11:55 PM 42.8 °F 38.0 °F 39.2 °F 87% 30.05 in 10.0 mi SSW 8.1 mph - N/A   Overcast